Total_Precipitation_Accumulation
0.16 0.36 0.86 1.36 2.03 2.76 2.48 1.66 0.96 0.72 0.63 0.70 0.77 0.77 0.88 1.01 1.45 2.23 2.31 2.10 1.87 2.13 2.53 3.17 3.44 3.02 2.75 2.69 2.58 2.60 2.74 2.71 2.72 2.77 2.83 2.94 3.18 3.37 3.53 3.45 3.20 3.07 3.02 2.92 3.09 3.23 3.13 3.03 2.88
0.28 0.64 1.15 1.65 2.47 2.73 2.17 1.78 0.92 0.68 0.62 0.64 0.69 0.74 0.79 0.73 0.73 1.25 2.04 1.93 1.71 1.87 2.16 2.69 3.25 2.97 2.63 2.60 2.58 2.67 2.71 2.66 2.66 2.74 2.90 3.07 3.27 3.42 3.37 3.15 2.97 2.96 2.89 2.79 2.87 3.09 2.95 2.69 2.67
0.45 0.85 1.19 1.74 1.88 1.74 1.46 1.17 0.73 0.62 0.58 0.70 0.73 0.69 0.71 0.98 0.96 1.35 1.72 1.57 1.70 1.82 2.10 2.81 3.23 3.06 2.80 2.66 2.71 2.62 2.55 2.54 2.68 2.85 3.04 3.30 3.29 3.32 3.18 2.99 2.84 2.73 2.59 2.62 2.74 2.94 2.85 2.66 2.65
0.51 0.89 1.19 1.33 1.17 0.92 0.76 0.61 0.47 0.56 0.51 0.60 0.70 0.70 0.85 1.01 0.98 1.31 1.51 1.53 1.64 1.86 2.16 2.72 3.03 2.96 2.79 2.60 2.57 2.64 2.67 2.71 2.86 2.84 2.98 3.22 3.23 3.34 3.19 2.86 2.71 2.50 2.32 2.34 2.56 2.83 2.87 2.71 2.64
0.67 1.08 1.34 1.09 0.86 0.71 0.57 0.48 0.43 0.53 0.51 0.62 0.75 0.93 1.22 1.23 1.07 1.35 1.51 1.50 1.53 1.69 2.04 2.36 2.84 3.01 2.88 2.75 2.81 2.85 2.82 2.85 2.89 2.78 2.79 2.81 2.86 2.98 2.85 2.62 2.52 2.36 2.10 2.09 2.52 2.81 2.78 2.54 2.48
0.82 1.20 1.07 0.81 0.69 0.57 0.51 0.41 0.37 0.46 0.54 0.63 0.81 1.12 1.63 1.72 1.46 1.41 1.41 1.31 1.43 1.63 1.89 2.15 2.66 2.90 2.99 2.98 3.08 3.03 2.94 2.96 2.84 2.72 2.66 2.53 2.38 2.54 2.49 2.31 2.39 2.31 2.16 2.31 2.66 2.77 2.61 2.49 2.54
1.04 1.18 0.77 0.57 0.55 0.52 0.45 0.36 0.40 0.40 0.52 0.74 0.91 1.23 1.84 2.22 1.82 1.46 1.44 1.49 1.67 1.72 1.83 2.20 2.58 2.62 2.72 3.15 3.25 3.17 3.08 3.09 2.98 2.85 2.64 2.43 2.24 2.23 2.18 2.21 2.31 2.30 2.39 2.56 2.80 2.83 2.70 2.59 2.77
0.55 0.65 0.58 0.46 0.37 0.44 0.41 0.34 0.36 0.41 0.48 0.65 0.85 1.18 1.85 1.89 1.62 1.54 1.76 1.88 2.09 2.04 1.95 2.11 2.33 2.31 2.39 2.71 3.10 3.13 2.94 2.85 2.86 2.93 2.67 2.61 2.48 2.30 2.25 2.23 2.28 2.40 2.56 2.84 2.99 2.99 2.92 2.77 2.90
0.37 0.56 0.47 0.30 0.28 0.34 0.31 0.31 0.35 0.37 0.43 0.64 0.82 1.08 1.42 1.38 1.34 1.41 2.02 2.23 2.31 2.22 2.20 2.14 2.06 2.08 2.24 2.37 2.73 2.92 2.99 2.95 2.99 3.11 2.89 2.78 2.79 2.48 2.53 2.50 2.72 2.87 2.86 3.18 3.41 3.46 3.21 3.16 3.40
0.26 0.31 0.21 0.15 0.17 0.23 0.27 0.33 0.34 0.40 0.62 0.99 1.31 1.34 1.28 1.29 1.43 1.65 2.12 2.14 2.31 2.41 2.25 2.26 2.22 2.10 2.00 2.12 2.50 2.80 2.60 2.74 3.09 3.25 3.01 2.89 3.08 3.11 2.57 2.85 3.38 3.61 3.60 3.80 4.01 3.97 3.41 3.11 3.15
0.18 0.18 0.15 0.14 0.15 0.20 0.24 0.32 0.36 0.43 0.90 1.37 1.81 1.67 1.44 1.52 1.64 1.90 2.33 2.58 2.57 2.71 2.50 2.46 2.34 2.09 1.86 2.12 2.12 2.41 2.64 2.95 3.18 3.04 2.92 2.90 2.74 2.67 2.67 3.11 3.69 3.86 3.82 3.94 4.18 3.91 3.32 3.37 3.56
0.12 0.13 0.15 0.16 0.18 0.21 0.29 0.34 0.43 0.54 0.83 0.95 1.19 1.45 1.56 1.73 1.96 2.23 2.42 2.67 2.70 2.79 2.69 2.78 2.51 2.41 2.48 2.35 2.10 2.05 2.16 2.43 2.75 3.01 2.91 2.98 3.24 3.23 3.16 3.43 3.51 3.76 3.94 4.33 4.06 4.04 3.85 3.79 3.66
0.09 0.11 0.14 0.16 0.18 0.23 0.29 0.31 0.44 0.60 0.66 0.72 1.03 1.39 1.73 1.86 2.15 2.46 2.56 2.85 2.78 2.76 2.80 2.92 2.80 2.68 2.78 2.64 2.51 2.28 2.31 2.30 2.41 2.66 2.92 3.01 3.40 3.71 3.66 3.62 3.58 3.53 3.48 3.69 3.82 3.69 3.99 4.15 3.71
0.08 0.11 0.13 0.15 0.19 0.30 0.33 0.34 0.46 0.65 0.74 0.92 1.16 1.44 1.73 2.03 2.24 2.40 2.83 2.99 3.08 3.02 3.11 2.95 2.95 2.95 2.97 3.03 3.08 2.95 2.55 2.60 2.56 2.66 2.75 2.93 3.39 3.86 3.96 3.80 3.64 3.40 3.29 3.38 3.55 3.68 4.12 4.10 3.88
0.11 0.17 0.19 0.20 0.27 0.31 0.36 0.58 0.71 0.83 0.86 1.00 1.24 1.38 1.66 2.18 2.42 2.45 2.79 2.97 2.94 3.37 3.46 3.47 3.42 3.57 3.56 3.49 3.45 3.17 2.90 2.73 2.78 3.02 3.15 3.09 3.26 3.66 3.63 3.39 3.24 3.21 3.31 3.51 3.50 3.71 3.88 3.58 3.62
0.15 0.29 0.35 0.33 0.32 0.28 0.41 0.87 0.92 1.03 0.98 1.13 1.33 1.48 1.71 2.04 2.36 2.51 2.80 3.00 3.11 3.54 3.81 4.10 3.93 3.98 3.83 3.87 3.87 3.55 3.26 3.09 2.97 3.03 3.15 2.97 2.96 3.13 3.41 3.18 3.05 3.34 3.37 3.51 3.80 3.98 3.87 3.89 3.92
0.22 0.29 0.33 0.33 0.29 0.29 0.39 0.73 0.87 1.07 1.25 1.40 1.52 1.67 1.69 1.97 2.29 2.66 2.90 3.22 3.51 3.88 4.26 4.71 4.63 4.41 4.13 4.18 4.16 3.95 3.78 3.46 3.08 2.96 2.95 2.86 2.84 2.96 3.30 3.34 3.43 3.47 3.60 3.67 3.46 3.92 3.98 3.95 3.99
0.19 0.24 0.28 0.33 0.29 0.33 0.54 0.76 0.86 1.06 1.36 1.38 1.59 1.75 1.82 1.90 2.36 2.81 2.97 3.35 3.81 4.34 4.79 4.76 4.75 4.93 4.80 4.65 4.53 4.21 3.72 3.28 3.12 3.09 2.96 2.87 2.96 3.03 3.46 3.34 3.34 3.40 3.65 3.77 3.70 3.87 3.92 3.67 3.68
0.13 0.19 0.25 0.32 0.29 0.32 0.53 0.81 1.11 1.28 1.58 1.48 1.49 1.63 1.77 1.89 2.19 2.61 2.88 3.39 3.97 4.41 4.83 5.05 5.13 5.02 4.87 4.53 4.24 4.01 3.76 3.54 3.26 3.06 2.98 2.94 2.86 3.08 3.56 3.33 3.61 3.54 3.61 3.66 3.69 3.85 3.76 3.47 3.65
0.13 0.19 0.24 0.29 0.29 0.37 0.60 0.87 1.21 1.31 1.39 1.37 1.29 1.34 1.54 1.84 2.10 2.60 2.89 3.10 3.52 4.04 4.51 4.85 5.04 4.94 4.56 4.23 4.09 4.03 3.99 3.58 3.31 3.28 3.44 3.25 3.24 3.28 3.33 3.59 3.55 3.64 3.81 3.77 3.74 3.87 3.64 3.28 3.56
0.17 0.20 0.23 0.24 0.28 0.48 0.67 1.19 1.44 1.34 1.35 1.32 1.29 1.32 1.48 1.92 2.37 2.64 2.83 2.96 3.20 3.60 3.91 4.02 4.21 4.19 4.04 4.09 4.12 4.11 4.15 3.74 3.68 3.70 3.73 3.50 3.50 3.52 3.54 3.53 3.48 3.54 3.35 3.46 3.55 3.56 3.58 3.51 3.42
0.23 0.21 0.18 0.21 0.32 0.62 0.75 1.50 1.88 1.65 1.53 1.59 1.59 1.50 1.75 2.03 2.07 2.27 2.54 2.81 2.96 3.19 3.50 3.72 3.79 3.75 3.68 3.81 3.88 3.80 3.62 3.51 3.68 3.96 3.91 3.65 3.44 3.32 3.16 3.10 3.29 3.34 3.12 3.22 2.88 3.07 3.27 3.28 3.13
0.19 0.19 0.21 0.27 0.37 0.61 0.79 1.21 1.78 1.70 1.86 1.83 1.63 1.68 1.97 1.92 1.79 1.93 2.14 2.44 2.56 2.86 3.13 3.33 3.59 3.68 3.64 3.72 3.72 3.77 3.60 3.59 3.65 3.67 3.73 3.53 3.36 3.05 2.72 2.77 3.02 3.00 2.93 2.86 2.75 2.97 2.83 2.78 2.86
0.15 0.20 0.31 0.42 0.60 1.05 0.87 1.00 1.63 1.69 1.58 1.57 1.54 1.48 1.68 1.61 1.57 1.81 2.00 2.27 2.43 2.54 2.67 2.77 2.99 3.25 3.44 3.49 3.46 3.52 3.48 3.46 3.42 3.43 3.34 3.12 2.97 2.78 2.48 2.39 2.62 2.76 2.83 2.81 2.78 2.88 2.79 2.85 2.95
0.16 0.31 0.79 1.22 1.42 1.39 0.77 0.89 1.42 1.31 1.23 1.24 1.34 1.36 1.39 1.33 1.31 1.54 1.70 1.88 2.09 2.19 2.29 2.43 2.72 3.07 3.15 3.11 3.07 3.19 3.27 3.29 3.23 3.22 3.08 2.86 2.63 2.42 2.37 2.40 2.56 2.62 2.70 2.58 2.66 2.75 2.75 2.92 2.98
0.19 0.27 0.76 1.12 1.26 1.19 0.93 1.36 1.77 1.31 1.15 1.18 1.27 1.25 1.21 1.15 1.08 1.23 1.50 1.82 1.98 1.95 2.01 2.16 2.47 2.73 2.77 2.70 2.85 3.12 3.20 3.24 3.17 3.21 2.89 2.64 2.43 2.38 2.50 2.51 2.39 2.36 2.46 2.34 2.65 2.58 2.61 2.86 2.94
0.20 0.22 0.34 0.56 0.68 0.97 1.20 1.53 1.52 1.05 0.99 1.05 1.12 1.12 1.22 1.17 1.09 1.16 1.26 1.48 1.60 1.65 1.72 1.86 2.29 2.58 2.67 2.75 2.88 3.02 3.15 3.11 3.08 2.98 2.71 2.45 2.48 2.44 2.59 2.58 2.51 2.40 2.47 2.59 2.87 2.78 2.70 2.93 2.91
0.19 0.23 0.30 0.45 0.74 1.11 1.32 1.66 1.79 1.25 1.02 0.79 0.77 0.85 0.88 0.89 0.92 0.99 1.03 1.15 1.25 1.42 1.69 1.88 2.06 2.40 2.50 2.60 2.76 2.80 3.04 2.95 2.79 2.76 2.54 2.31 2.22 2.32 2.57 2.73 2.63 2.48 2.50 2.67 2.86 2.82 2.94 3.13 3.17
0.22 0.25 0.29 0.36 0.50 0.85 1.43 1.68 1.29 1.01 0.86 0.82 0.77 0.85 0.88 0.84 0.81 0.86 0.98 1.11 1.21 1.36 1.58 1.72 1.77 2.01 2.21 2.34 2.53 2.53 2.54 2.63 2.72 2.56 2.30 2.24 2.28 2.40 2.48 2.59 2.58 2.49 2.52 2.66 2.73 2.68 3.00 3.15 3.17
0.22 0.22 0.26 0.37 0.39 0.51 0.90 1.26 0.86 0.83 0.89 0.88 0.85 0.91 0.99 0.94 0.86 0.91 1.07 1.19 1.27 1.43 1.49 1.54 1.61 1.83 2.04 2.24 2.47 2.54 2.55 2.61 2.66 2.50 2.31 2.32 2.39 2.41 2.36 2.42 2.42 2.30 2.34 2.56 2.58 2.63 2.98 3.19 3.00